Find KUIPER-00511

NORAD ID: 68888 Int'l Des: 2026-095AA Owner: kuiper Country: USA Constellation: kuiper operational
LEOCIRCULAR

Live Position

Loading 3D Globe...

About KUIPER-00511

Description loading...

Upcoming Passes

Passes for default location (London). Set your location on the main map for personalized predictions.

Altitude History

Loading altitude history...

Two-Line Element Set

1 68888U 26095AA 26120.66670139 -.00009529 00000-0 -24983-3 0 9995
2 68888 51.8771 112.1697 0007115 115.3565 57.4072 15.36851882 1302
Epoch: Apr 30, 2026 • Age: 31 hours

Current Status

Altitude 457.3 km
Velocity 7.65 km/s
Sub-Earth Point 44.07°N, 45.82°W
Type internet

Most Searched